Regional Weather Roundup
Issued by NWS

Home | Current Version | Previous Version | Graphics & Text | Print | Product List | Glossary On
Versions: 1 2 3 4 5 6 7 8 9 10 11 12 13 14 15 16 17 18 19 20 21 22 23 24 25 26 27 28 29 30 31 32 33 34 35 36 37 38 39 40 41 42 43 44 45 46 47 48
000
ASUS43 KDMX 230407
RWRIA

WEATHER ROUNDUP FOR IOWA
NATIONAL WEATHER SERVICE DES MOINES IA
1000 PM CST SAT NOV 22 2014

NOTE: "FAIR" INDICATES FEW OR NO CLOUDS BELOW 12,000 FEET WITH NO
SIGNIFICANT WEATHER AND/OR OBSTRUCTIONS TO VISIBILITY.

* - THESE STATIONS ARE NOT NWS STATIONS...THUS NOT UNDER NWS
QUALITY CONTROL.  THEY ALSO DO NOT REPORT WEATHER SUCH
AS PRECIPITATION OR FOG.

IAZ001>003-012>014-020>022-031>034-043>046-230500-
   NORTHWEST IOWA

CITY           SKY/WX    TMP DP  RH WIND       PRES   REMARKS
CARROLL *      CLOUDY    54  52  94 S21G29    29.58F
CHEROKEE *     MOCLDY    50  50 100 SW13G21   29.53F
DENISON *      CLOUDY    54  54 100 S17G24    29.55F
LE MARS *      CLOUDY    50  48  93 S15G22    29.51S
ORANGE CITY *  CLOUDY    50  46  87 S17G28    29.50S FOG
SHELDON *      CLOUDY    50  50 100 S21G30    29.49S FOG
SIOUX CITY     CLOUDY    54  50  86 S18G24    29.52F
SPENCER        CLOUDY    49  46  90 S16       29.52S
STORM LAKE *   CLOUDY    52  52 100 S23G29    29.54F FOG
$$

IAZ055>058-069>071-079>083-090>094-230500-
   SOUTHWEST IOWA

CITY           SKY/WX    TMP DP  RH WIND       PRES   REMARKS
ATLANTIC *     CLOUDY    54  52  94 S17G24    29.62S
AUDUBON *      CLEAR     54  48  82 S17G23    29.62S
CLARINDA *     CLOUDY    54  52  94 S13       29.66S
COUNCIL BLFS * CLOUDY    55  55 100 S18G24    29.59S
CRESTON *      CLOUDY    52  52 100 S21G32    29.65F
HARLAN  *      CLOUDY    54  54 100 S18       29.63F
LAMONI         CLOUDY    52  50  93 S13       29.69S
RED OAK *      CLOUDY    54  52  94 S15G22    29.63F
SHENANDOAH *   CLOUDY    55  52  88 S14G21    29.64S
$$

IAZ047>049-059>061-072>074-084-230500-
   CENTRAL IOWA

CITY           SKY/WX    TMP DP  RH WIND       PRES   REMARKS
AMES           CLOUDY    53  49  86 S14       29.64S
ANKENY *       MOCLDY    54  52  94 S10       29.65F
CHARITON *     CLOUDY    54  50  87 S18G25    29.67F
DES MOINES     CLOUDY    54  49  83 S15G23    29.66F
GRINNELL*      CLEAR     50  48  93 S13       29.69S
KNOXVILLE *    MOCLDY    54  50  87 S16G24    29.66S
MARSHALLTOWN   PTCLDY    50  49  96 S12       29.65F
PELLA *        CLEAR     54  50  87 S14       29.69F
PERRY *        CLOUDY    55  50  82 S18G26    29.62S
$$

IAZ004>006-015-016-023>025-035-036-230500-
   NORTH CENTRAL IOWA

CITY           SKY/WX    TMP DP  RH WIND       PRES   REMARKS
ALGONA *       CLOUDY    50  50 100 S17       29.56F FOG
CLARION *      CLOUDY    50  50 100 S16       29.59S FOG
ESTHERVILLE    CLOUDY    47  45  93 S15       29.51F
FORT DODGE *   CLOUDY    54  50  87 S17G23    29.59F
MASON CITY     CLOUDY    49  49 100 S14       29.60F FOG
FOREST CITY *  CLOUDY    50  50 100 S13       29.58F FOG
IOWA FALLS *   CLOUDY    52  50  93 S16       29.63F
$$

IAZ007>011-017>019-026>030-037>042-050>054-066-230500-
   NORTHEAST IOWA

CITY           SKY/WX    TMP DP  RH WIND       PRES   REMARKS
CEDAR RAPIDS   PTCLDY    50  49  96 S9        29.71F
CHARLES CITY * CLOUDY    50  50 100 S15       29.63S FOG
CLINTON *      CLOUDY    52  46  82 S15       29.80F
DECORAH *      CLOUDY    50  50 100 S12       29.64F FOG
DUBUQUE        CLOUDY    50  49  96 S15       29.73F
MONTICELLO *   CLOUDY    52  50  93 S12G20    29.72F
OELWEIN *      CLOUDY    52  50  93 S17       29.67F FOG
WATERLOO       CLOUDY    53  51  93 S13       29.65F
$$

IAZ064-065-067-068-078-230500-
   EAST CENTRAL IOWA

CITY           SKY/WX    TMP DP  RH WIND       PRES   REMARKS
DAVENPORT      PTCLDY    50  45  83 S17       29.78F
IOWA CITY      PTCLDY    51  48  89 SE9       29.75F
MT. PLEASANT * MOCLDY    52  48  87 S20       29.77S
MUSCATINE *    MOCLDY    48  45  87 S7        29.77S
QUAD CITIES    CLEAR     50  46  86 S13       29.77F
$$

IAZ062-063-075>077-085>089-095>099-230500-
   SOUTHEAST IOWA

CITY           SKY/WX    TMP DP  RH WIND       PRES   REMARKS
BURLINGTON     CLOUDY    52  49  89 S16G25    29.78F
FAIRFIELD *    CLOUDY    52  48  87 S15       29.73F
FORT MADISON * CLOUDY    54  52  94 S14G20    29.78F
KEOKUK *       CLOUDY    54  50  87 S16G25    29.76F
OSKALOOSA *    MOCLDY    50  48  93 S14       29.70F
CENTERVILLE *  CLOUDY    54  54 100 S14       29.73F
OTTUMWA        MOCLDY    52  48  86 S15       29.71F
WASHINGTON *   PTCLDY    50  50 100 S15       29.73F
$$

ABBREVIATIONS USED IN REMARKS
   TC - TEMPERATURES IN CELSIUS
  WCI - WIND CHILL INDEX
   HX - HEAT INDEX
  VSB - VISIBILITY
$$




USA.gov is the U.S. government's official web portal to all federal, state and local government web resources and services.